Time,TemperatureF,DewpointF,PressureIn,WindDirection,WindDirectionDegrees,WindSpeedMPH,WindSpeedGustMPH,Humidity,HourlyPrecipIn,Conditions,Clouds,dailyrainin,SoftwareType,DateUTC
2013-05-25 00:01:00,48.0,11.0,-100.00,SSE,148,4.0,7.0,22,-99.99,,,-99.99,,2013-05-25 07:01:00,
2013-05-25 00:11:00,50.0,11.0,-100.00,SE,127,4.0,5.0,21,-99.99,,,-99.99,,2013-05-25 07:11:00,
2013-05-25 00:21:00,45.0,12.0,-100.00,ESE,112,6.0,9.0,25,-99.99,,,-99.99,,2013-05-25 07:21:00,
2013-05-25 00:31:00,47.0,12.0,-100.00,ESE,123,9.0,10.0,24,-99.99,,,-99.99,,2013-05-25 07:31:00,
2013-05-25 00:42:00,47.0,12.0,-100.00,ESE,123,9.0,10.0,24,-99.99,,,-99.99,,2013-05-25 07:42:00,
2013-05-25 00:52:00,46.0,12.0,-100.00,ESE,121,8.0,10.0,25,-99.99,,,-99.99,,2013-05-25 07:52:00,
2013-05-25 01:02:00,46.0,14.0,-100.00,ESE,113,9.0,11.0,27,-99.99,,,-99.99,,2013-05-25 08:02:00,
2013-05-25 01:11:00,47.0,14.0,-100.00,ESE,109,11.0,12.0,26,-99.99,,,-99.99,,2013-05-25 08:11:00,
2013-05-25 01:22:00,47.0,14.0,-100.00,ESE,110,11.0,13.0,26,-99.99,,,-99.99,,2013-05-25 08:22:00,
2013-05-25 01:32:00,47.0,14.0,-100.00,ESE,110,11.0,13.0,26,-99.99,,,-99.99,,2013-05-25 08:32:00,
2013-05-25 01:42:00,47.0,14.0,-100.00,ESE,110,11.0,13.0,26,-99.99,,,-99.99,,2013-05-25 08:42:00,
2013-05-25 01:51:00,47.0,14.0,-100.00,ESE,107,11.0,13.0,26,-99.99,,,-99.99,,2013-05-25 08:51:00,
2013-05-25 02:01:00,47.0,14.0,-100.00,ESE,107,11.0,13.0,26,-99.99,,,-99.99,,2013-05-25 09:01:00,
2013-05-25 02:11:00,47.0,14.0,-100.00,ESE,107,11.0,13.0,26,-99.99,,,-99.99,,2013-05-25 09:11:00,
2013-05-25 02:21:00,46.0,13.0,-100.00,ESE,107,10.0,13.0,26,-99.99,,,-99.99,,2013-05-25 09:21:00,
2013-05-25 02:33:00,46.0,13.0,-100.00,ESE,107,10.0,13.0,26,-99.99,,,-99.99,,2013-05-25 09:33:00,
2013-05-25 02:42:00,45.0,13.0,-100.00,South,182,4.0,7.0,27,-99.99,,,-99.99,,2013-05-25 09:42:00,
2013-05-25 02:53:00,45.0,13.0,-100.00,South,181,3.0,6.0,27,-99.99,,,-99.99,,2013-05-25 09:53:00,
2013-05-25 03:02:00,45.0,13.0,-100.00,South,181,3.0,6.0,27,-99.99,,,-99.99,,2013-05-25 10:02:00,
2013-05-25 03:12:00,48.0,12.0,-100.00,SSE,155,6.0,14.0,23,-99.99,,,-99.99,,2013-05-25 10:12:00,
2013-05-25 03:22:00,47.0,11.0,-100.00,SSE,152,7.0,13.0,23,-99.99,,,-99.99,,2013-05-25 10:22:00,
2013-05-25 03:32:00,47.0,10.0,-100.00,SE,137,9.0,12.0,22,-99.99,,,-99.99,,2013-05-25 10:32:00,
2013-05-25 03:42:00,47.0,10.0,-100.00,SE,137,9.0,12.0,22,-99.99,,,-99.99,,2013-05-25 10:42:00,
2013-05-25 03:52:00,47.0,9.0,-100.00,ESE,121,10.0,14.0,21,-99.99,,,-99.99,,2013-05-25 10:52:00,
2013-05-25 04:02:00,47.0,9.0,-100.00,ESE,121,10.0,14.0,21,-99.99,,,-99.99,,2013-05-25 11:02:00,
2013-05-25 04:12:00,47.0,10.0,-100.00,ESE,116,11.0,14.0,21,-99.99,,,-99.99,,2013-05-25 11:12:00,
2013-05-25 04:21:00,47.0,9.0,-100.00,ESE,120,11.0,14.0,21,-99.99,,,-99.99,,2013-05-25 11:21:00,
2013-05-25 04:32:00,47.0,9.0,-100.00,ESE,120,11.0,14.0,21,-99.99,,,-99.99,,2013-05-25 11:32:00,
2013-05-25 04:41:00,45.0,9.0,-100.00,SSE,147,7.0,13.0,23,-99.99,,,-99.99,,2013-05-25 11:41:00,
2013-05-25 04:52:00,44.0,9.0,-100.00,SE,124,7.0,11.0,23,-99.99,,,-99.99,,2013-05-25 11:52:00,
2013-05-25 05:01:00,44.0,9.0,-100.00,ESE,117,9.0,12.0,23,-99.99,,,-99.99,,2013-05-25 12:01:00,
2013-05-25 05:12:00,41.0,9.0,-100.00,SE,131,4.0,11.0,26,-99.99,,,-99.99,,2013-05-25 12:12:00,
2013-05-25 05:22:00,43.0,8.0,-100.00,SSE,154,5.0,9.0,24,-99.99,,,-99.99,,2013-05-25 12:22:00,
2013-05-25 05:32:00,43.0,8.0,-100.00,SSE,154,5.0,9.0,24,-99.99,,,-99.99,,2013-05-25 12:32:00,
2013-05-25 05:42:00,41.0,9.0,-100.00,SE,141,8.0,10.0,26,-99.99,,,-99.99,,2013-05-25 12:42:00,
2013-05-25 05:52:00,39.0,8.0,-100.00,SE,131,9.0,12.0,28,-99.99,,,-99.99,,2013-05-25 12:52:00,
2013-05-25 06:02:00,39.0,9.0,-100.00,SE,136,11.0,12.0,28,-99.99,,,-99.99,,2013-05-25 13:02:00,
2013-05-25 06:11:00,39.0,9.0,-100.00,SE,138,10.0,11.0,28,-99.99,,,-99.99,,2013-05-25 13:11:00,
2013-05-25 06:21:00,40.0,9.0,-100.00,SE,137,10.0,12.0,27,-99.99,,,-99.99,,2013-05-25 13:21:00,
2013-05-25 06:32:00,42.0,11.0,-100.00,SE,137,9.0,10.0,28,-99.99,,,-99.99,,2013-05-25 13:32:00,
2013-05-25 06:42:00,42.0,11.0,-100.00,SE,137,9.0,10.0,28,-99.99,,,-99.99,,2013-05-25 13:42:00,
2013-05-25 06:52:00,42.0,11.0,-100.00,SE,137,9.0,10.0,28,-99.99,,,-99.99,,2013-05-25 13:52:00,
2013-05-25 07:02:00,45.0,13.0,-100.00,SE,133,7.0,9.0,27,-99.99,,,-99.99,,2013-05-25 14:02:00,
2013-05-25 07:11:00,47.0,15.0,-100.00,SE,133,7.0,9.0,27,-99.99,,,-99.99,,2013-05-25 14:11:00,
2013-05-25 07:22:00,50.0,15.0,-100.00,SE,137,6.0,9.0,25,-99.99,,,-99.99,,2013-05-25 14:22:00,
2013-05-25 07:32:00,52.0,14.0,-100.00,SSE,150,6.0,9.0,22,-99.99,,,-99.99,,2013-05-25 14:32:00,
2013-05-25 07:42:00,53.0,13.0,-100.00,SSE,154,6.0,8.0,20,-99.99,,,-99.99,,2013-05-25 14:42:00,
2013-05-25 07:52:00,53.0,13.0,-100.00,SSE,154,6.0,8.0,20,-99.99,,,-99.99,,2013-05-25 14:52:00,
2013-05-25 08:01:00,56.0,13.0,-100.00,SE,144,8.0,12.0,18,-99.99,,,-99.99,,2013-05-25 15:01:00,
2013-05-25 08:11:00,56.0,13.0,-100.00,SE,144,8.0,12.0,18,-99.99,,,-99.99,,2013-05-25 15:11:00,
2013-05-25 08:22:00,57.0,11.0,-100.00,SSE,148,6.0,11.0,16,-99.99,,,-99.99,,2013-05-25 15:22:00,
2013-05-25 08:33:00,58.0,12.0,-100.00,SE,145,8.0,13.0,16,-99.99,,,-99.99,,2013-05-25 15:33:00,
2013-05-25 08:43:00,58.0,12.0,-100.00,SE,145,8.0,13.0,16,-99.99,,,-99.99,,2013-05-25 15:43:00,
2013-05-25 08:53:00,58.0,12.0,-100.00,SE,145,8.0,13.0,16,-99.99,,,-99.99,,2013-05-25 15:53:00,
2013-05-25 09:03:00,59.0,13.0,-100.00,SSW,196,5.0,11.0,16,-99.99,,,-99.99,,2013-05-25 16:03:00,
2013-05-25 09:12:00,59.0,15.0,-100.00,SW,217,8.0,18.0,17,-99.99,,,-99.99,,2013-05-25 16:12:00,
2013-05-25 09:23:00,60.0,15.0,-100.00,SSW,208,13.0,22.0,17,-99.99,,,-99.99,,2013-05-25 16:23:00,
2013-05-25 09:32:00,60.0,14.0,-100.00,SW,216,11.0,19.0,16,-99.99,,,-99.99,,2013-05-25 16:32:00,
2013-05-25 09:42:00,60.0,14.0,-100.00,SW,216,11.0,19.0,16,-99.99,,,-99.99,,2013-05-25 16:42:00,
2013-05-25 09:52:00,61.0,13.0,-100.00,SW,230,11.0,17.0,15,-99.99,,,-99.99,,2013-05-25 16:52:00,
2013-05-25 10:02:00,61.0,13.0,-100.00,SSW,212,11.0,19.0,15,-99.99,,,-99.99,,2013-05-25 17:02:00,
2013-05-25 10:11:00,62.0,14.0,-100.00,SW,226,11.0,18.0,15,-99.99,,,-99.99,,2013-05-25 17:11:00,
2013-05-25 10:22:00,63.0,13.0,-100.00,SW,215,12.0,19.0,14,-99.99,,,-99.99,,2013-05-25 17:22:00,
2013-05-25 10:32:00,63.0,13.0,-100.00,SW,223,14.0,22.0,14,-99.99,,,-99.99,,2013-05-25 17:32:00,
2013-05-25 10:41:00,63.0,13.0,-100.00,SW,223,14.0,22.0,14,-99.99,,,-99.99,,2013-05-25 17:41:00,
2013-05-25 10:52:00,64.0,14.0,-100.00,SW,222,11.0,23.0,14,-99.99,,,-99.99,,2013-05-25 17:52:00,
2013-05-25 11:01:00,64.0,14.0,-100.00,SW,222,11.0,23.0,14,-99.99,,,-99.99,,2013-05-25 18:01:00,
2013-05-25 11:11:00,64.0,14.0,-100.00,SW,220,12.0,24.0,14,-99.99,,,-99.99,,2013-05-25 18:11:00,
2013-05-25 11:21:00,65.0,13.0,-100.00,SSW,210,15.0,24.0,13,-99.99,,,-99.99,,2013-05-25 18:21:00,
2013-05-25 11:32:00,66.0,12.0,-100.00,SSW,206,13.0,21.0,12,-99.99,,,-99.99,,2013-05-25 18:32:00,
2013-05-25 11:42:00,65.0,11.0,-100.00,SW,232,14.0,23.0,12,-99.99,,,-99.99,,2013-05-25 18:42:00,
2013-05-25 11:52:00,65.0,11.0,-100.00,SSW,212,13.0,24.0,12,-99.99,,,-99.99,,2013-05-25 18:52:00,
2013-05-25 12:01:00,66.0,12.0,-100.00,SW,229,14.0,22.0,12,-99.99,,,-99.99,,2013-05-25 19:01:00,
2013-05-25 12:11:00,66.0,10.0,-100.00,SW,230,16.0,26.0,11,-99.99,,,-99.99,,2013-05-25 19:11:00,
2013-05-25 12:21:00,68.0,11.0,-100.00,SW,232,13.0,22.0,11,-99.99,,,-99.99,,2013-05-25 19:21:00,
2013-05-25 12:32:00,66.0,10.0,-100.00,SW,224,17.0,27.0,11,-99.99,,,-99.99,,2013-05-25 19:32:00,
2013-05-25 12:42:00,66.0,10.0,-100.00,SW,224,17.0,27.0,11,-99.99,,,-99.99,,2013-05-25 19:42:00,
2013-05-25 12:52:00,68.0,9.0,-100.00,SW,229,16.0,27.0,10,-99.99,,,-99.99,,2013-05-25 19:52:00,
2013-05-25 13:02:00,68.0,9.0,-100.00,SW,229,16.0,27.0,10,-99.99,,,-99.99,,2013-05-25 20:02:00,
2013-05-25 13:11:00,68.0,9.0,-100.00,SW,233,16.0,27.0,10,-99.99,,,-99.99,,2013-05-25 20:11:00,
2013-05-25 13:21:00,69.0,10.0,-100.00,SW,229,17.0,30.0,10,-99.99,,,-99.99,,2013-05-25 20:21:00,
2013-05-25 13:32:00,71.0,12.0,-100.00,SW,222,15.0,25.0,10,-99.99,,,-99.99,,2013-05-25 20:32:00,
2013-05-25 13:42:00,71.0,12.0,-100.00,SW,222,15.0,25.0,10,-99.99,,,-99.99,,2013-05-25 20:42:00,
2013-05-25 13:52:00,68.0,12.0,-100.00,South,171,13.0,23.0,11,-99.99,,,-99.99,,2013-05-25 20:52:00,
2013-05-25 14:02:00,68.0,12.0,-100.00,South,171,13.0,23.0,11,-99.99,,,-99.99,,2013-05-25 21:02:00,
2013-05-25 14:11:00,69.0,10.0,-100.00,SSW,196,14.0,25.0,10,-99.99,,,-99.99,,2013-05-25 21:11:00,
2013-05-25 14:21:00,70.0,11.0,-100.00,SW,220,20.0,38.0,10,-99.99,,,-99.99,,2013-05-25 21:21:00,
2013-05-25 14:33:00,70.0,11.0,-100.00,SW,224,18.0,28.0,10,-99.99,,,-99.99,,2013-05-25 21:33:00,
2013-05-25 14:43:00,70.0,11.0,-100.00,SW,224,18.0,28.0,10,-99.99,,,-99.99,,2013-05-25 21:43:00,
2013-05-25 14:53:00,71.0,12.0,-100.00,SSW,206,18.0,37.0,10,-99.99,,,-99.99,,2013-05-25 21:53:00,
2013-05-25 15:03:00,71.0,12.0,-100.00,SSW,206,18.0,37.0,10,-99.99,,,-99.99,,2013-05-25 22:03:00,
2013-05-25 15:22:00,70.0,11.0,-100.00,SSW,212,18.0,28.0,10,-99.99,,,-99.99,,2013-05-25 22:22:00,
2013-05-25 15:32:00,70.0,11.0,-100.00,SW,219,17.0,27.0,10,-99.99,,,-99.99,,2013-05-25 22:32:00,
2013-05-25 15:42:00,70.0,11.0,-100.00,SW,219,17.0,27.0,10,-99.99,,,-99.99,,2013-05-25 22:42:00,
2013-05-25 15:52:00,71.0,12.0,-100.00,SSW,213,17.0,29.0,10,-99.99,,,-99.99,,2013-05-25 22:52:00,
2013-05-25 16:02:00,71.0,12.0,-100.00,SSW,213,17.0,29.0,10,-99.99,,,-99.99,,2013-05-25 23:02:00,
2013-05-25 16:12:00,72.0,14.0,-100.00,SSW,196,11.0,25.0,11,-99.99,,,-99.99,,2013-05-25 23:12:00,
2013-05-25 16:21:00,71.0,12.0,-100.00,SSW,209,18.0,32.0,10,-99.99,,,-99.99,,2013-05-25 23:21:00,
2013-05-25 16:32:00,70.0,13.0,-100.00,South,174,13.0,25.0,11,-99.99,,,-99.99,,2013-05-25 23:32:00,
2013-05-25 16:42:00,70.0,13.0,-100.00,South,174,13.0,25.0,11,-99.99,,,-99.99,,2013-05-25 23:42:00,
2013-05-25 16:52:00,71.0,12.0,-100.00,SSW,210,13.0,30.0,10,-99.99,,,-99.99,,2013-05-25 23:52:00,
2013-05-25 17:01:00,71.0,12.0,-100.00,SSW,210,13.0,30.0,10,-99.99,,,-99.99,,2013-05-26 00:01:00,
2013-05-25 17:11:00,71.0,14.0,-100.00,SSW,192,15.0,27.0,11,-99.99,,,-99.99,,2013-05-26 00:11:00,
2013-05-25 17:21:00,71.0,14.0,-100.00,SSW,212,16.0,25.0,11,-99.99,,,-99.99,,2013-05-26 00:21:00,
2013-05-25 17:31:00,70.0,13.0,-100.00,SW,222,15.0,25.0,11,-99.99,,,-99.99,,2013-05-26 00:31:00,
2013-05-25 17:42:00,70.0,13.0,-100.00,SW,222,15.0,25.0,11,-99.99,,,-99.99,,2013-05-26 00:42:00,
2013-05-25 17:52:00,71.0,14.0,-100.00,SSW,212,15.0,27.0,11,-99.99,,,-99.99,,2013-05-26 00:52:00,
2013-05-25 18:01:00,70.0,13.0,-100.00,SSW,208,15.0,27.0,11,-99.99,,,-99.99,,2013-05-26 01:01:00,
2013-05-25 18:11:00,71.0,14.0,-100.00,SSW,202,12.0,21.0,11,-99.99,,,-99.99,,2013-05-26 01:11:00,
2013-05-25 18:21:00,70.0,13.0,-100.00,SSW,205,15.0,24.0,11,-99.99,,,-99.99,,2013-05-26 01:21:00,
2013-05-25 18:32:00,70.0,13.0,-100.00,SW,219,13.0,25.0,11,-99.99,,,-99.99,,2013-05-26 01:32:00,
2013-05-25 18:42:00,70.0,13.0,-100.00,SW,219,13.0,25.0,11,-99.99,,,-99.99,,2013-05-26 01:42:00,
2013-05-25 18:52:00,69.0,12.0,-100.00,SSW,203,12.0,22.0,11,-99.99,,,-99.99,,2013-05-26 01:52:00,
2013-05-25 19:02:00,69.0,12.0,-100.00,SSW,203,12.0,22.0,11,-99.99,,,-99.99,,2013-05-26 02:02:00,
2013-05-25 19:11:00,68.0,11.0,-100.00,South,175,16.0,23.0,11,-99.99,,,-99.99,,2013-05-26 02:11:00,
2013-05-25 19:21:00,67.0,11.0,-100.00,South,181,16.0,23.0,11,-99.99,,,-99.99,,2013-05-26 02:21:00,
2013-05-25 19:32:00,67.0,11.0,-100.00,South,181,16.0,23.0,11,-99.99,,,-99.99,,2013-05-26 02:32:00,
2013-05-25 19:52:00,66.0,10.0,-100.00,South,174,15.0,26.0,11,-99.99,,,-99.99,,2013-05-26 02:52:00,
2013-05-25 20:01:00,65.0,7.0,-100.00,South,181,14.0,21.0,10,-99.99,,,-99.99,,2013-05-26 03:01:00,
2013-05-25 20:11:00,64.0,7.0,-100.00,South,182,15.0,22.0,10,-99.99,,,-99.99,,2013-05-26 03:11:00,
2013-05-25 20:21:00,63.0,7.0,-100.00,South,184,11.0,17.0,11,-99.99,,,-99.99,,2013-05-26 03:21:00,
2013-05-25 20:33:00,61.0,6.0,-100.00,South,176,10.0,16.0,11,-99.99,,,-99.99,,2013-05-26 03:33:00,
2013-05-25 20:42:00,60.0,7.0,-100.00,SSE,168,9.0,12.0,12,-99.99,,,-99.99,,2013-05-26 03:42:00,
2013-05-25 20:53:00,58.0,6.0,-100.00,SSE,167,8.0,11.0,12,-99.99,,,-99.99,,2013-05-26 03:53:00,
2013-05-25 21:02:00,57.0,6.0,-100.00,South,178,6.0,9.0,13,-99.99,,,-99.99,,2013-05-26 04:02:00,
2013-05-25 21:33:00,52.0,5.0,-100.00,SE,133,8.0,10.0,15,-99.99,,,-99.99,,2013-05-26 04:33:00,
2013-05-25 22:02:00,52.0,5.0,-100.00,SE,134,7.0,10.0,15,-99.99,,,-99.99,,2013-05-26 05:02:00,
2013-05-25 22:10:00,52.0,5.0,-100.00,ESE,123,8.0,11.0,14,-99.99,,,-99.99,,2013-05-26 05:10:00,
2013-05-25 22:12:00,52.0,5.0,-100.00,SE,140,9.0,11.0,14,-99.99,,,-99.99,,2013-05-26 05:12:00,
2013-05-25 22:22:00,52.0,5.0,-100.00,SSE,150,8.0,11.0,14,-99.99,,,-99.99,,2013-05-26 05:22:00,
2013-05-25 22:32:00,51.0,5.0,-100.00,ESE,123,9.0,11.0,15,-99.99,,,-99.99,,2013-05-26 05:32:00,
2013-05-25 22:52:00,52.0,5.0,-100.00,ESE,123,8.0,11.0,14,-99.99,,,-99.99,,2013-05-26 05:52:00,
2013-05-25 23:01:00,52.0,5.0,-100.00,ESE,123,8.0,11.0,14,-99.99,,,-99.99,,2013-05-26 06:01:00,
2013-05-25 23:21:00,53.0,5.0,-100.00,SE,136,8.0,12.0,14,-99.99,,,-99.99,,2013-05-26 06:21:00,
2013-05-25 23:32:00,52.0,5.0,-100.00,SE,128,10.0,14.0,14,-99.99,,,-99.99,,2013-05-26 06:32:00,
2013-05-25 23:42:00,52.0,5.0,-100.00,SE,128,10.0,14.0,14,-99.99,,,-99.99,,2013-05-26 06:42:00,
2013-05-25 23:52:00,52.0,5.0,-100.00,SE,128,10.0,14.0,14,-99.99,,,-99.99,,2013-05-26 06:52:00,